Simultaneous Nadir Overpasses (SNOs) Predictions

Prediction of SNOs between GOES-16 and TERRA Satellite Orbit:

Table of predicted SNOs for the next 14.0 days since TLE Epoch: 6/4/2022
Index Date Time (GOES-16) GOES-16 Lat,Lon TERRA Lat,Lon Distance(km) Time Diff (sec)
1 06/06/2022 03:12:36 -0.03, -75.19 0.40, -73.08 239.35 80
2 06/06/2022 15:31:10 0.03, -75.20 0.69, -78.25 346.03 80
3 06/08/2022 15:18:56 0.03, -75.22 0.07, -75.29 9.59 80
4 06/10/2022 15:09:24 0.03, -75.24 -0.60, -72.35 328.33 80
5 06/11/2022 03:28:06 -0.03, -75.23 -0.54, -77.54 263.00 80
6 06/13/2022 03:15:53 -0.02, -75.25 0.14, -74.60 74.50 80
7 06/15/2022 03:03:39 -0.02, -75.27 0.75, -71.65 411.80 80
8 06/15/2022 15:24:54 0.02, -75.28 0.34, -76.81 173.40 80
9 06/17/2022 15:15:20 0.01, -75.30 -0.27, -73.85 164.49 80
10 06/18/2022 03:36:44 -0.01, -75.30 -0.80, -79.05 426.37 80
